Location: Wald
(31.7579°N, 86.6655°W)
Time: 00:10:35
(UTC+00:00)

Cosmos 2074 Rocket - Pass Details

Date: 14 July 2020
Orbit: 967 x 986 km, 82.9° (Epoch: 12 August)

Event Time Altitude Azimuth Distance (km) Brightness Sun altitude
Exits shadow 02:34:53 26° 162° (SSE) 1,825 4.9 -18.7°
Maximum altitude 02:38:26 59° 92° (E) 1,109 4.0 -19.2°
Drops below altitude 10° 02:44:31 10° 14° (NNE) 2,713 6.7 -20.2°
Sets 02:47:03 0° 11° (N) 3,662 7.5 -20.6°
